• In Belarus
  • List of Countries
  • For 7 days
  • Water Temperature
  • Satellite Maps
  • Weather Map
  • Weather Widgets
  • user-avatar
    Login

    Hourly Weather Dangriga

    Today, 20 February, Tuesday

    Time Temperature Precipitation Wind Pressure Humidity
    00:00 +24°C° 0.1 mm 6 mps 761 mmHg 94%
    01:00 +24°C° 0.1 mm 6 mps 761 mmHg 93%
    02:00 +24°C° 0.1 mm 6 mps 761 mmHg 92%
    03:00 +24°C° 0.1 mm 6 mps 761 mmHg 92%
    04:00 +24°C° 0.3 mm 6 mps 761 mmHg 92%
    05:00 +24°C° 0.3 mm 6 mps 761 mmHg 93%
    06:00 +24°C° 0.3 mm 6 mps 761 mmHg 94%
    07:00 +26°C° 0.3 mm 6 mps 761 mmHg 90%
    08:00 +27°C° 0.3 mm 6 mps 762 mmHg 86%
    09:00 +28°C° 0.3 mm 6 mps 762 mmHg 82%
    10:00 +29°C° 0.1 mm 6 mps 762 mmHg 75%
    11:00 +30°C° 0.1 mm 6 mps 762 mmHg 68%
    12:00 +32°C° 0.1 mm 6 mps 762 mmHg 61%
    13:00 +32°C° 0 mm 6 mps 761 mmHg 60%
    14:00 +32°C° 0 mm 6 mps 761 mmHg 60%
    15:00 +32°C° 0 mm 6 mps 761 mmHg 59%
    16:00 +30°C° 0.2 mm 6 mps 761 mmHg 69%
    17:00 +28°C° 0.2 mm 6 mps 761 mmHg 78%
    18:00 +26°C° 0.2 mm 7 mps 761 mmHg 87%
    19:00 +26°C° 0.9 mm 7 mps 761 mmHg 89%
    20:00 +26°C° 0.9 mm 7 mps 762 mmHg 90%
    21:00 +24°C° 0.9 mm 7 mps 762 mmHg 92%
    22:00 +24°C° 0.3 mm 7 mps 762 mmHg 93%
    23:00 +24°C° 0.3 mm 8 mps 762 mmHg 94%

    Tomorrow, 21 February, Wednesday

    Time Temperature Precipitation Wind Pressure Humidity
    00:00 +24°C° 0.3 mm 8 mps 762 mmHg 95%
    01:00 +24°C° 0.4 mm 8 mps 762 mmHg 95%
    02:00 +24°C° 0.4 mm 7 mps 762 mmHg 94%
    03:00 +24°C° 0.4 mm 7 mps 762 mmHg 94%
    04:00 +24°C° 0.1 mm 7 mps 762 mmHg 94%
    05:00 +24°C° 0.1 mm 7 mps 762 mmHg 93%
    06:00 +24°C° 0.1 mm 6 mps 762 mmHg 93%
    07:00 +26°C° 0 mm 6 mps 763 mmHg 84%
    08:00 +28°C° 0 mm 6 mps 763 mmHg 76%
    09:00 +30°C° 0 mm 6 mps 764 mmHg 67%
    10:00 +30°C° 0.4 mm 6 mps 764 mmHg 67%
    11:00 +30°C° 0.4 mm 6 mps 764 mmHg 67%
    12:00 +30°C° 0.4 mm 6 mps 763 mmHg 67%
    13:00 +30°C° 0.7 mm 6 mps 763 mmHg 73%
    14:00 +29°C° 0.7 mm 6 mps 762 mmHg 78%
    15:00 +28°C° 0.7 mm 6 mps 762 mmHg 84%
    16:00 +27°C° 0.5 mm 6 mps 762 mmHg 87%
    17:00 +26°C° 0.5 mm 6 mps 762 mmHg 90%
    18:00 +24°C° 0.5 mm 6 mps 762 mmHg 93%
    19:00 +24°C° 0.1 mm 6 mps 763 mmHg 94%
    20:00 +24°C° 0.1 mm 6 mps 763 mmHg 96%
    21:00 +24°C° 0.1 mm 6 mps 764 mmHg 97%
    22:00 +24°C° 0.1 mm 6 mps 764 mmHg 97%
    23:00 +24°C° 0.1 mm 6 mps 763 mmHg 97%

    Day after tomorrow, 22 February, Thursday

    Time Temperature Precipitation Wind Pressure Humidity
    00:00 +24°C° 0.1 mm 6 mps 763 mmHg 97%
    01:00 +24°C° 0.1 mm 6 mps 763 mmHg 97%
    02:00 +23°C° 0.1 mm 6 mps 762 mmHg 97%
    03:00 +23°C° 0.1 mm 5 mps 762 mmHg 97%
    04:00 +23°C° 0.1 mm 5 mps 762 mmHg 97%
    05:00 +23°C° 0.1 mm 5 mps 762 mmHg 97%
    06:00 +23°C° 0.1 mm 5 mps 763 mmHg 96%
    07:00 +25°C° 0.2 mm 5 mps 763 mmHg 93%
    08:00 +26°C° 0.2 mm 5 mps 764 mmHg 90%
    09:00 +28°C° 0.2 mm 5 mps 764 mmHg 87%
    10:00 +28°C° 0.5 mm 5 mps 764 mmHg 86%
    11:00 +28°C° 0.5 mm 5 mps 764 mmHg 84%
    12:00 +29°C° 0.5 mm 5 mps 764 mmHg 83%
    13:00 +29°C° 0.3 mm 5 mps 763 mmHg 78%
    14:00 +30°C° 0.3 mm 4 mps 762 mmHg 74%
    15:00 +30°C° 0.3 mm 4 mps 762 mmHg 69%
    16:00 +29°C° 0 mm 4 mps 762 mmHg 74%
    17:00 +28°C° 0 mm 4 mps 762 mmHg 79%
    18:00 +26°C° 0 mm 4 mps 762 mmHg 84%
    19:00 +26°C° 0.1 mm 4 mps 763 mmHg 88%
    20:00 +25°C° 0.1 mm 4 mps 763 mmHg 92%
    21:00 +25°C° 0.1 mm 5 mps 764 mmHg 95%
    22:00 +25°C° 0.2 mm 5 mps 764 mmHg 96%
    23:00 +23°C° 0.2 mm 5 mps 763 mmHg 97%

    23 February, Friday

    Time Temperature Precipitation Wind Pressure Humidity
    00:00 +23°C° 0.2 mm 5 mps 763 mmHg 98%
    01:00 +23°C° 0.5 mm 5 mps 763 mmHg 98%
    02:00 +23°C° 0.5 mm 5 mps 762 mmHg 98%
    03:00 +23°C° 0.5 mm 6 mps 762 mmHg 98%
    04:00 +23°C° 0.2 mm 5 mps 762 mmHg 98%
    05:00 +23°C° 0.2 mm 5 mps 763 mmHg 98%
    06:00 +23°C° 0.2 mm 5 mps 763 mmHg 98%
    07:00 +25°C° 0.2 mm 5 mps 763 mmHg 96%
    08:00 +26°C° 0.2 mm 4 mps 764 mmHg 93%
    09:00 +27°C° 0.2 mm 4 mps 764 mmHg 91%
    10:00 +28°C° 0.8 mm 4 mps 764 mmHg 88%
    11:00 +28°C° 0.8 mm 5 mps 763 mmHg 86%
    12:00 +28°C° 0.8 mm 5 mps 763 mmHg 83%
    13:00 +29°C° 0.9 mm 5 mps 762 mmHg 81%
    14:00 +29°C° 0.9 mm 4 mps 762 mmHg 79%
    15:00 +29°C° 0.9 mm 4 mps 761 mmHg 77%
    16:00 +28°C° 0.3 mm 4 mps 761 mmHg 81%
    17:00 +27°C° 0.3 mm 4 mps 761 mmHg 85%
    18:00 +26°C° 0.3 mm 4 mps 761 mmHg 89%
    19:00 +25°C° 0 mm 4 mps 762 mmHg 91%
    20:00 +25°C° 0 mm 4 mps 762 mmHg 94%
    21:00 +23°C° 0 mm 4 mps 762 mmHg 96%
    22:00 +23°C° 0.1 mm 4 mps 762 mmHg 96%
    23:00 +23°C° 0.1 mm 4 mps 762 mmHg 96%

    24 February, Saturday

    Time Temperature Precipitation Wind Pressure Humidity
    00:00 +23°C° 0.1 mm 4 mps 762 mmHg 97%
    01:00 +23°C° 0.1 mm 4 mps 761 mmHg 97%
    02:00 +23°C° 0.1 mm 4 mps 761 mmHg 97%
    03:00 +23°C° 0.1 mm 4 mps 760 mmHg 98%
    04:00 +23°C° 0.1 mm 4 mps 760 mmHg 98%
    05:00 +23°C° 0.1 mm 4 mps 761 mmHg 98%
    06:00 +23°C° 0.1 mm 4 mps 761 mmHg 98%
    07:00 +25°C° 0.1 mm 4 mps 761 mmHg 95%
    08:00 +26°C° 0.1 mm 4 mps 762 mmHg 92%
    09:00 +27°C° 0.1 mm 4 mps 762 mmHg 89%
    10:00 +29°C° 0.1 mm 4 mps 762 mmHg 79%
    11:00 +30°C° 0.1 mm 4 mps 761 mmHg 68%
    12:00 +33°C° 0.1 mm 4 mps 761 mmHg 57%
    13:00 +32°C° 0 mm 4 mps 760 mmHg 57%
    14:00 +32°C° 0 mm 4 mps 759 mmHg 56%
    15:00 +32°C° 0 mm 4 mps 759 mmHg 56%
    16:00 +30°C° 0 mm 4 mps 759 mmHg 65%
    17:00 +28°C° 0 mm 4 mps 759 mmHg 75%
    18:00 +26°C° 0 mm 4 mps 759 mmHg 84%
    19:00 +26°C° 0 mm 4 mps 760 mmHg 88%
    20:00 +25°C° 0 mm 4 mps 760 mmHg 91%
    21:00 +23°C° 0 mm 5 mps 760 mmHg 95%
    22:00 +23°C° 0 mm 5 mps 760 mmHg 95%
    23:00 +23°C° 0 mm 5 mps 760 mmHg 95%

    25 February, Sunday

    Time Temperature Precipitation Wind Pressure Humidity
    00:00 +23°C° 0 mm 4 mps 760 mmHg 95%
    01:00 +23°C° 0 mm 4 mps 760 mmHg 95%
    02:00 +25°C° 0 mm 4 mps 759 mmHg 95%
    03:00 +25°C° 0 mm 4 mps 759 mmHg 95%
    04:00 +25°C° 0 mm 4 mps 759 mmHg 96%
    05:00 +25°C° 0 mm 4 mps 760 mmHg 97%
    06:00 +25°C° 0 mm 4 mps 760 mmHg 97%
    07:00 +26°C° 0 mm 4 mps 761 mmHg 93%
    08:00 +27°C° 0 mm 4 mps 761 mmHg 89%
    09:00 +28°C° 0 mm 4 mps 762 mmHg 85%
    10:00 +29°C° 0 mm 4 mps 761 mmHg 77%
    11:00 +30°C° 0 mm 4 mps 761 mmHg 69%
    12:00 +33°C° 0 mm 4 mps 761 mmHg 61%
    13:00 +33°C° 0 mm 4 mps 760 mmHg 60%
    14:00 +33°C° 0 mm 4 mps 760 mmHg 59%
    15:00 +33°C° 0 mm 5 mps 759 mmHg 58%
    16:00 +30°C° 0 mm 5 mps 759 mmHg 67%
    17:00 +28°C° 0 mm 5 mps 760 mmHg 76%
    18:00 +26°C° 0 mm 5 mps 760 mmHg 85%
    19:00 +26°C° 0 mm 5 mps 760 mmHg 88%
    20:00 +26°C° 0 mm 5 mps 761 mmHg 91%
    21:00 +25°C° 0 mm 5 mps 761 mmHg 94%
    22:00 +25°C° 0 mm 5 mps 761 mmHg 95%
    23:00 +25°C° 0 mm 5 mps 761 mmHg 96%
    Show more